This demonstration page uses our WeatherBlox Daily Observations layout. Learn more.

Left ArrowRight Arrow

34.16533, -84.80231

Hourly Observations for May 20, 2017

Temp ( °F °C ) Dew Point ( °F °C ) Humidity (%) Winds ( mph kmh ) Pressure ( in mb ) Visibility ( mi km ) Precip ( " mm )
12:53 am 00:53 Clear 74 23.3 67 19.4 79 79 Calm 30.04 1017 10 16 0.00 0.00
1:53 am 01:53 Clear 69 20.6 67 19.4 93 93 Calm 30.03 1017 10 16 0.00 0.00
2:53 am 02:53 Clear 67 19.4 66 18.9 97 97 Calm 30.02 1017 10 16 0.00 0.00
3:53 am 03:53 Clear 72 22.2 64 17.8 76 76 SE 6 9 30.02 1017 10 16 0.00 0.00
4:53 am 04:53 Clear 67 19.4 65 18.3 93 93 Calm 30.03 1017 10 16 0.00 0.00
5:53 am 05:53 Clear 65 18.3 64 17.8 97 97 Calm 30.05 1018 10 16 0.00 0.00
6:53 am 06:53 Sunny 63 17.2 63 17.2 100 100 Calm 30.06 1018 10 16 0.00 0.00
7:53 am 07:53 Sunny 70 21.1 66 18.9 87 87 E 3 6 30.07 1018 10 16 0.00 0.00
8:53 am 08:53 Sunny 75 23.9 70 21.1 84 84 S 6 9 30.07 1018 10 16 0.00 0.00
9:53 am 09:53 Sunny 79 26.1 71 21.7 77 77 VRB 6 9 30.07 1018 10 16 0.00 0.00
10:53 am 10:53 Sunny 83 28.3 70 21.1 65 65 VRB 7 11 30.07 1018 10 16 0.00 0.00
11:53 am 11:53 Partly Cloudy 85 29.4 69 20.6 59 59 SE 8 13 30.07 1018 10 16 0.00 0.00
12:53 pm 12:53 Mostly Sunny 87 30.6 67 19.4 51 51 SSW 7 11 30.06 1018 10 16 0.00 0.00
1:53 pm 13:53 Mostly Sunny 88 31.1 68 20 52 52 SSE 9 15 30.05 1018 10 16 0.00 0.00
2:53 pm 14:53 Sunny 88 31.1 66 18.9 48 48 E 8 13 30.01 1016 10 16 0.00 0.00
3:53 pm 15:53 Mostly Sunny 90 32.2 66 18.9 45 45 SSE 6 9 29.97 1015 10 16 0.00 0.00
4:53 pm 16:53 Partly Cloudy 87 30.6 69 20.6 55 55 ESE 9 15 29.96 1014 10 16 0.00 0.00
5:53 pm 17:53 Mostly Cloudy 84 28.9 72 22.2 67 67 SSE 10 17 29.97 1015 10 16 0.00 0.00
6:53 pm 18:53 Mostly Cloudy 80 26.7 73 22.8 79 79 SE 6 9 29.98 1015 10 16 0.00 0.00
7:21 pm 19:21 Cloudy with Thunderstorms 79 26.1 70 21.1 74 74 SSE 17 28 30.00 1016 10 16 0.00 0.00
7:53 pm 19:53 Mostly Cloudy with Thunderstorms 72 22.2 71 21.7 97 97 S 7 11 30.04 1017 10 16 0.03 0.76
8:07 pm 20:07 Partly Cloudy with Nearby Thunderstorms 72 22.2 71 21.7 97 97 VRB 3 6 30.06 1018 10 16 0.00 0.00
8:30 pm 20:30 Partly Cloudy 71 21.7 70 21.1 96 96 VRB 3 6 30.06 1018 10 16 0.00 0.00
8:53 pm 20:53 Partly Cloudy 71 21.7 71 21.7 100 100 Calm 30.06 1018 10 16 0.00 0.00
9:19 pm 21:19 Cloudy 71 21.7 71 21.7 100 100 Calm 30.09 1019 10 16 0.00 0.00
9:53 pm 21:53 Cloudy 71 21.7 70 21.1 96 96 Calm 30.08 1019 10 16 0.01 0.25
10:09 pm 22:09 Cloudy with Nearby Thunderstorms 70 21.1 70 21.1 100 100 NNW 3 6 30.09 1019 9 14 0.01 0.25
10:23 pm 22:23 Cloudy with Nearby Thunderstorms 69 20.6 69 20.6 100 100 S 8 13 30.12 1020 2 2 0.17 4.32
10:31 pm 22:31 Cloudy with Nearby Thunderstorms 69 20.6 69 20.6 100 100 VRB 3 6 30.12 1020 1 1 0.51 12.95
10:33 pm 22:33 Cloudy with Strong Thunderstorms 69 20.6 69 20.6 100 100 VRB 5 7 30.12 1020 1 1 0.60 15.24
10:41 pm 22:41 Cloudy with Strong Thunderstorms 68 20 68 20 100 100 N 6 9 30.09 1019 1 2 0.82 20.83
10:49 pm 22:49 Cloudy with Strong Thunderstorms 68 20 68 20 100 100 Calm 30.12 1020 2 3 0.89 22.61
10:53 pm 22:53 Cloudy with Strong Thunderstorms 68 20 68 20 100 100 VRB 3 6 30.10 1019 3 4 0.92 23.37
11:04 pm 23:04 Cloudy with Strong Thunderstorms 68 20 68 20 100 100 NE 6 9 30.12 1020 2 3 0.15 3.81
11:16 pm 23:16 Cloudy with Strong Thunderstorms 68 20 68 20 100 100 NE 3 6 30.12 1020 2 3 0.26 6.60
11:27 pm 23:27 Cloudy with Nearby Thunderstorms 68 20 68 20 100 100 Calm 30.12 1020 4 6 0.29 7.37
11:39 pm 23:39 Cloudy with Thunderstorms 68 20 68 20 100 100 Calm 30.12 1020 3 4 0.35 8.89
11:53 pm 23:53 Cloudy with Strong Thunderstorms 68 20 68 20 100 100 Calm 30.10 1019 1 2 0.56 14.22

Powered by AerisWeather